Terminal Aerodrome Forecast
Issued by NWS

Home | Current Version | Previous Version | Text Only | Print | Product List | Glossary On
Versions: 1 2 3 4 5 6 7 8 9 10 11 12 13 14
000
FTUS46 KSEW 301100
TAFHQM
TAF
KHQM 301125Z 3012/3112 16005KT 6SM BR OVC018
      TEMPO 3012/3016 4SM -RA BR OVC008
     FM301800 14012G18KT P6SM SCT025 BKN040 OVC120
     FM310000 19018G27KT P6SM -RA OVC015
     FM310600 25013G20KT P6SM -RA OVC015=

USA.gov is the U.S. government's official web portal to all federal, state and local government web resources and services.